Weather at Long Alango Airstrip

Public forecast

Using degrees Celsius for public forecast. Weather courtesy of forecast.io.

Closest aviation weather report (METAR) to Long Alango Airstrip

Closest report is Juwata Airport, 105.7 nm (195.8 km) ENE. Retrieved 2021/10/23 03:30 UTC (23 minutes ago):

WAQQ 230330Z 30005KT 9999 SCT015 BKN180 29/24 Q1012 NOSIG

Closest aviation forecast (TAF) to Long Alango Airstrip

Forecast is more than 12 hours old.

Closest forecast is Tanjung Harapan Airport, 91.5 nm (169.4 km) E. Retrieved 2015/03/28 06:00 UTC (7 years ago):

TAF WALG 280500Z 2806/2818 12010KT 9999 SCT015 TEMPO 2815/2818 7000 RA FEW015CB SCT018